Lid_Strength_Index
10 11 10 10 11 11 12 13 13 11 12 10 8 8 7 7 6 6 6 6 5 5 4 4 4 3 3 2 2 2 3 3 4 4 4 4 3 1 2 1 2 1 1 1
12 11 10 11 11 10 11 11 11 11 12 9 7 7 7 7 7 7 6 5 5 4 4 4 4 3 3 3 2 2 2 3 2 3 3 3 2 2 2 2 2 2 2 1
14 13 13 14 11 11 11 10 10 12 10 9 8 7 7 7 6 6 6 6 6 5 4 4 3 3 3 3 2 2 2 2 2 3 4 4 3 1 3 3 3 2 2 1
13 15 17 11 9 9 9 9 8 9 9 9 7 6 6 6 6 6 6 5 5 5 4 3 3 3 2 2 2 2 2 2 2 4 4 4 3 2 2 3 2 2 1 1
17 16 13 11 10 9 10 10 8 9 7 7 7 6 7 6 5 5 4 4 4 3 4 3 3 2 3 3 3 3 3 3 3 3 4 3 2 2 2 3 2 1 1 1
15 16 16 12 9 7 8 12 8 7 8 8 7 10 9 6 5 6 5 5 4 3 3 3 3 2 3 3 3 3 3 2 3 3 4 4 3 2 2 2 2 1 1 1
15 15 14 10 8 7 12 12 8 7 7 7 8 7 6 5 5 5 4 4 3 3 3 3 2 2 3 3 3 2 2 2 2 2 3 3 2 2 3 2 2 2 2 2
15 16 17 8 8 11 9 8 7 7 7 7 7 6 5 5 5 4 4 4 3 3 3 3 2 3 3 4 2 2 3 4 4 4 3 3 4 3 3 3 3 2 1 2
13 14 9 8 9 7 7 7 7 7 7 6 6 6 5 5 5 5 4 4 3 4 4 3 3 2 3 4 3 3 5 5 4 4 3 3 3 3 3 2 2 2 2 2
12 9 9 9 8 8 7 7 7 7 6 5 6 6 6 5 5 5 4 4 4 4 4 4 4 3 3 4 4 5 5 4 4 3 4 4 3 2 2 2 3 3 3 3
11 9 8 8 7 7 7 7 8 7 7 7 7 7 7 5 5 4 4 4 4 4 4 4 3 4 4 4 4 4 4 4 3 4 3 3 3 4 3 4 4 2 2 2
12 8 8 9 7 6 8 8 7 8 8 7 7 7 6 7 4 4 4 4 5 5 4 5 4 4 4 3 3 2 3 3 3 3 3 2 6 7 10 11 11 11 11 6
8 8 8 8 7 7 9 9 8 8 8 8 7 8 7 7 6 4 4 4 4 5 5 5 4 4 3 3 3 3 3 3 4 3 2 3 4 5 5 8 12 12 11 11
6 6 9 8 9 8 8 8 8 8 8 8 8 7 7 7 5 4 4 3 3 5 5 4 4 4 4 4 3 3 2 5 2 2 2 3 4 4 6 6 6 7 10 9
8 7 8 8 8 8 7 7 8 9 8 8 7 7 6 6 5 4 3 3 3 4 4 4 4 4 2 2 2 2 2 2 2 2 3 4 4 5 5 6 6 6 7 8
8 7 7 8 8 8 8 8 8 7 7 7 6 5 5 5 5 4 3 3 4 4 4 5 4 3 1 1 1 2 3 4 4 3 4 5 5 5 5 5 5 6 5 5
8 8 8 8 7 7 7 7 6 6 6 5 5 5 5 5 5 5 4 3 3 4 4 4 3 1 1 1 3 3 3 3 3 3 3 4 4 4 4 4 5 4 4 4
7 7 7 6 6 6 5 5 5 5 5 5 4 4 4 4 5 4 3 3 3 4 4 3 2 3 3 3 3 2 3 3 2 3 3 3 3 3 3 3 4 4 4 5
5 5 5 4 5 5 5 5 5 4 4 4 4 4 4 4 4 4 4 4 4 5 4 4 3 3 2 2 3 3 3 3 3 3 3 4 4 3 3 3 4 3 4 5
4 4 4 4 4 4 5 5 5 4 4 4 4 4 4 4 4 4 4 5 5 4 4 3 3 3 3 2 3 3 3 3 3 4 4 4 4 4 3 5 3 4 4 6
5 4 5 5 5 5 5 4 4 4 4 4 4 5 5 3 3 3 4 4 3 3 3 3 3 4 3 3 3 4 4 4 3 3 3 4 3 3 2 2 3 4 3 4
6 6 5 5 5 5 4 4 4 4 4 4 4 4 4 4 4 3 3 3 3 4 3 3 4 4 3 3 4 4 4 3 3 3 3 3 3 4 4 3 3 2 2 3
5 5 5 5 5 5 4 4 4 4 4 4 4 4 4 4 4 4 4 3 2 3 2 3 3 3 4 4 5 5 5 5 5 5 4 3 3 3 3 3 3 3 4 3
5 4 4 4 4 5 5 4 3 3 3 3 4 3 4 4 3 3 3 4 5 4 3 3 3 4 4 4 5 5 6 5 5 5 5 6 3 3 3 3 4 4 4 5
5 5 5 5 6 6 6 5 5 3 3 3 3 3 3 4 3 3 3 2 5 4 2 4 4 4 4 5 5 5 5 5 6 6 6 6 6 5 5 4 5 5 5 5
5 6 6 5 6 6 6 5 5 5 4 3 3 3 3 3 4 3 3 3 2 4 3 3 3 2 3 4 5 5 5 5 5 6 7 6 6 6 5 5 5 5 5 5
5 7 6 6 6 6 5 4 4 4 4 3 4 3 3 3 2 3 4 3 3 3 3 2 3 4 3 4 5 5 5 5 6 5 6 6 6 6 6 6 5 5 5 5